Home   Weather   Augusta   Past weeks

Flag for USA Past Weather in Augusta, Maine, USA — Yesterday and Last 2 Weeks

Now
24 °F

Mostly cloudy.


Feels Like: 20 °F
Forecast: 20 / 31 °F
Wind: 3 mph from North

Location: Augusta State Airport

Current Time: Dec 5, 2016 at 11:40:32 am

Latest Report: Dec 5, 2016 at 10:53 am


Visibility: 10 mi

Pressure: 30.04 "Hg

Humidity: 81%

Dew Point: 19 °F

Location of AugustaLocation

Past Weather in Augusta — Graph

°F

Augusta Temperature Yesterday

Maximum temperature yesterday: 36 °F (at 11:53 am)
Minimum temperature yesterday: 23 °F (at 10:53 pm)
Average temperature yesterday: 30 °F

High & Low Weather Summary for the Past Weeks

 TemperatureHumidityPressure
High47 °F (Dec 2, 11:53 am)100% (Nov 20, 10:53 am)30.41 "Hg (Nov 20, 10:53 am)
Low19 °F (Dec 5, 3:53 am)47% (Nov 28, 1:53 pm)29.14 "Hg (Nov 20, 3:53 pm)
Average34 °F80%29.90 "Hg
* Reported Nov 20 9:00 am — Dec 5 9:53 am, Augusta, Weather by CustomWeather, © 2016

Note: Actual official high and low records may vary slightly from our data, if they occured in-between our weather recording intervals... More about our weather records

Advertising

Augusta Weather History for the Previous 24 Hours

Scroll right to see more
 ConditionsComfort  
Time TempWeatherWind HumidityBarometerVisibility
9:53 am
Mon, Dec 5
23 °FMostly cloudy.6 mph85%30.06 "Hg10 mi
8:53 am22 °FOvercast.3 mph85%30.11 "Hg10 mi
7:53 am20 °FSunny.3 mph89%30.12 "Hg10 mi
6:53 am20 °FClear.No wind89%30.12 "Hg10 mi
5:53 am20 °FClear.No wind89%30.13 "Hg10 mi
4:53 am20 °FClear.3 mph85%30.13 "Hg10 mi
3:53 am19 °FClear.No wind88%30.13 "Hg10 mi
2:53 am20 °FClear.3 mph85%30.14 "Hg10 mi
1:53 am20 °FClear.No wind89%30.16 "Hg10 mi
12:53 am21 °FClear.3 mph81%30.17 "Hg10 mi
11:53 pm
Sun, Dec 4
23 °FClear.3 mph74%30.18 "Hg10 mi
10:53 pm23 °FClear.No wind74%30.19 "Hg10 mi
9:53 pm25 °FClear.No wind69%30.20 "Hg10 mi
8:53 pm24 °FClear.5 mph75%30.20 "Hg10 mi
7:53 pm26 °FClear.6 mph69%30.19 "Hg10 mi
6:53 pm27 °FClear.5 mph66%30.19 "Hg10 mi
5:53 pm29 °FClear.7 mph61%30.20 "Hg10 mi
4:53 pm30 °FClear.8 mph59%30.18 "Hg10 mi
3:53 pm32 °FSunny.12 mph52%30.15 "Hg10 mi
2:53 pm35 °FSunny.10 mph48%30.15 "Hg10 mi
1:53 pm36 °FSunny.9 mph48%30.12 "Hg10 mi
12:53 pm36 °FSunny.12 mph50%30.11 "Hg10 mi
11:53 am36 °FPartly sunny.8 mph50%30.12 "Hg10 mi
Weather by CustomWeather, © 2016

See weather overviewHow to use our weather pages